Russellville, AR

10:16 PM CDT on October 18, 2019 (GMT -0500)
Russellville Regional

Weather History for KRUE - August, 2019

Change the Weather History Date:

Monday, August 5, 2019

  Actual Average (WUND) Record (WUND)
Temperature  
Mean Temperature 82 °F -  
Max Temperature 93 °F - - (-1)
Min Temperature 72 °F - - (-1)
Cooling Degree Days 18    
Growing Degree Days 32 (Base 50)    
Moisture  
Dew Point 71 °F    
Average Humidity 71    
Maximum Humidity 93    
Minimum Humidity 45    
Precipitation  
Precipitation 0.00 in - - ()
Sea Level Pressure  
Sea Level Pressure 29.94 in    
Wind  
Wind Speed 1 mph (SE)    
Max Wind Speed 8 mph    
Max Gust Speed -    
Visibility 10 miles    
Events      
Averages and records for this station are not official NWS values.
T = Trace of Precipitation, MM = Missing Value Source: NWS Daily Summary

Daily Weather History Graph

Daily Weather History Graph

Search for Another Location

Airport or City:

Astronomy

Aug. 05, 2019 Rise Set
Actual Time 6:24 AM CDT 8:12 PM CDT
Civil Twilight 5:56 AM CDT 8:39 PM CDT
Nautical Twilight 5:23 AM CDT 9:12 PM CDT
Astronomical Twilight 4:47 AM CDT 9:48 PM CDT
Moon 11:30 AM CDT (8/5) 11:36 PM CDT (8/5)
Length of Visible Light 14h 43m
Length of Day
13h 47m
Waxing Crescent, 28% of the Moon is Illuminated
Aug 5
Waxing Crescent
Aug 7
First Quarter
Aug 15
Full
Aug 23
Last Quarter
Aug 30
New

Hourly Weather History & Observations

Time (CDT) Temp. Heat Index Dew Point Humidity Pressure Visibility Wind Dir Wind Speed Gust Speed Precip Events Conditions
12:53 AM 79.0 °F - 70.0 °F 74% 29.95 in 10.0 mi Calm Calm - N/A   Clear
1:53 AM 75.9 °F - 71.1 °F 85% 29.95 in 10.0 mi Calm Calm - N/A   Mostly Cloudy
2:53 AM 75.9 °F - 71.1 °F 85% 29.94 in 10.0 mi Calm Calm - N/A   Overcast
3:53 AM 75.0 °F - 71.1 °F 87% 29.94 in 10.0 mi Calm Calm - N/A   Scattered Clouds
4:53 AM 73.0 °F - 70.0 °F 90% 29.94 in 10.0 mi Calm Calm - N/A   Clear
5:53 AM 73.0 °F - 70.0 °F 90% 29.95 in 7.0 mi Calm Calm - N/A   Clear
6:53 AM 72.0 °F - 70.0 °F 93% 29.96 in 4.0 mi Calm Calm - N/A   Clear
7:53 AM 75.9 °F - 71.1 °F 85% 29.97 in 9.0 mi Variable 3.5 mph - N/A   Clear
8:53 AM 80.1 °F 83.8 °F 72.0 °F 76% 29.98 in 8.0 mi Calm Calm - N/A   Clear
9:53 AM 82.9 °F 88.8 °F 73.0 °F 72% 29.99 in 10.0 mi Variable 3.5 mph - N/A   Clear
10:53 AM 86.0 °F 93.0 °F 73.0 °F 65% 29.99 in 10.0 mi East 4.6 mph - N/A   Clear
11:53 AM 88.0 °F 95.6 °F 73.0 °F 61% 29.98 in 10.0 mi Calm Calm - N/A   Clear
12:53 PM 90.0 °F 94.5 °F 69.1 °F 50% 29.96 in 10.0 mi WSW 5.8 mph - N/A   Clear
1:53 PM 91.9 °F 97.4 °F 70.0 °F 48% 29.94 in 10.0 mi Calm Calm - N/A   Scattered Clouds
2:53 PM 91.9 °F 96.9 °F 69.1 °F 47% 29.92 in 10.0 mi Calm Calm - N/A   Clear
3:53 PM 93.0 °F 97.9 °F 69.1 °F 45% 29.91 in 10.0 mi West 3.5 mph - N/A   Scattered Clouds
4:53 PM 91.9 °F 96.9 °F 69.1 °F 47% 29.90 in 10.0 mi East 8.1 mph - N/A   Mostly Cloudy
5:53 PM 88.0 °F 93.8 °F 71.1 °F 57% 29.90 in 10.0 mi Variable 4.6 mph - N/A   Mostly Cloudy
6:53 PM 86.0 °F 92.2 °F 72.0 °F 63% 29.89 in 10.0 mi Variable 3.5 mph - N/A   Clear
7:53 PM 84.0 °F 89.0 °F 71.1 °F 65% 29.89 in 10.0 mi Variable 3.5 mph - N/A   Scattered Clouds
8:53 PM 81.0 °F 84.9 °F 71.1 °F 72% 29.90 in 10.0 mi Variable 3.5 mph - N/A   Clear
9:53 PM 80.1 °F 83.6 °F 71.1 °F 74% 29.91 in 10.0 mi Calm Calm - N/A   Clear
10:53 PM 75.9 °F - 71.1 °F 85% 29.90 in 10.0 mi Calm Calm - N/A   Clear
11:53 PM 75.0 °F - 71.1 °F 87% 29.90 in 10.0 mi Calm Calm - N/A   Clear